Location: Asheville, NC
(35.6000°N, 82.5500°W)
Time: 23:21:15
(UTC-05:00)

ISS - Visible Passes

Search period start: 02 December 2020 00:00
Search period end: 12 December 2020 00:00
Orbit: 418 x 420 km, 51.6° (Epoch: 03 December)

Date Brightness Start Highest point End Pass type
(mag) Time Alt. Az. Time Alt. Az. Time Alt. Az.
04 Dec -1.5 18:33:14 10° N 18:34:20 13° N 18:34:20 13° N visible
05 Dec -1.4 17:46:48 10° NNE 17:47:18 10° NNE 17:47:47 10° NNE visible
05 Dec -1.1 19:21:26 10° NW 19:22:04 15° NW 19:22:04 15° NW visible
06 Dec -2.9 18:34:02 10° NNW 18:37:01 31° NNE 18:37:01 31° NNE visible
07 Dec -2.2 17:46:45 10° NNW 17:49:19 20° NNE 17:51:54 10° E visible
07 Dec -2.0 19:23:04 10° WNW 19:25:17 32° W 19:25:17 32° W visible
08 Dec -3.8 18:35:21 10° NW 18:38:41 81° SW 18:40:56 19° SE visible
09 Dec -3.6 17:47:47 10° NW 17:51:04 53° NE 17:54:21 10° ESE visible
09 Dec -0.5 19:26:06 10° WSW 19:27:30 12° SW 19:28:55 10° SSW visible
10 Dec -1.1 18:37:22 10° WNW 18:40:02 22° SW 18:42:42 10° S visible
11 Dec -2.3 17:49:20 10° WNW 17:52:31 41° SW 17:55:41 10° SSE visible
